AirNav   Duncan Aviation - Near you to keep you flying
 
 469 users online  

FD08 Antiquers Aerodrome
Delray Beach, Florida, USA

GOING TO DELRAY BEACH?


FAA INFORMATION EFFECTIVE 02 DECEMBER 2021

Location

FAA Identifier: FD08
Lat/Long: 26-27-55.2650N 080-08-59.1600W
26-27.921083N 080-08.986000W
26.4653514,-80.1497667
(estimated)
Elevation: 23 ft. / 7 m (estimated)
Variation: 03W (1985)
From city: 4 miles W of DELRAY BEACH, FL
Time zone: UTC -5 (UTC -4 during Daylight Saving Time)
Zip code: 33446

Airport Operations

Airport use: Private use. Permission required prior to landing
Activation date: 07/1963
Control tower: no
ARTCC: MIAMI CENTER
FSS: MIAMI FLIGHT SERVICE STATION
Attendance: UNATNDD
Wind indicator: yes
Segmented circle: yes
Lights: ONLY THE MIDDLE 3720' ID LIGHTED BETWEEN SS - SR

Airport Communications

WX AWOS-3 at BCT (6 nm SE): 121.125 (561-391-2696)
WX AWOS-3PT at LNA (8 nm NE): 119.925 (561-964-0308)
WX ASOS at PMP (13 nm S): 120.55 (954-783-3720)
WX ASOS at PBI (13 nm N): 123.75 (561-683-2548)
WX ASOS at FXE (16 nm S): 119.85 (954-772-2537)

Nearby radio navigation aids

VOR radial/distance  VOR name  Freq  Var
PBIr198/13.3PALM BEACH VORTAC115.7003W
FLLr008/23.5FORT LAUDERDALE VOR/DME114.4006W
PHKr123/34.7PAHOKEE VOR/DME115.4000E

 
NDB name  Hdg/Dist  Freq  Var  ID
UNITED165/28.440505WUTX ..- - -..-

Airport Services

Airframe service: NONE
Powerplant service: NONE

Runway Information

Runway 9/27

Dimensions: 5180 x 85 ft. / 1579 x 26 m
Surface: turf
Runway edge lights: low intensity
RUNWAY 9  RUNWAY 27
Traffic pattern: leftright

Airport Ownership and Management from official FAA records

Ownership: Privately-owned
Owner: ANTIQUERS AERODROME
6530 SKYLINE DRIVE
DELRAY BEACH, FL 33446
Phone 561-496-4434
Manager: BILL LUMLEY
7320 SKYLINE DRIVE
DELRAY, FL 33446
Phone 561-496-4434

Airport Operational Statistics

Aircraft based on the field: 58
Single engine airplanes: 35
Multi engine airplanes: 11
Helicopters: 2
Gliders airplanes: 10
    
Aircraft operations: avg 21/week
92% local general aviation
8% transient general aviation

Additional Remarks

RSDNTL AIR PARK WITH PVT HOMES & HANGARS ADJ TO AIRSTRIP.
50' TWY ON N SIDE OF RWY.
TOTAL TURF RUNWAY LENGTH BETWEEN FENCES: 5180' AND IS AVAILABLE DURING DAYLIGHT HOURS FOR T.O & LDG.
TALL TREES ADJACENT TO RWY 9/27 ALONG SOUTH EDGE OF RWY.
FOR CD CTC PALM BEACH APCH AT 561-275-1430

Instrument Procedures

There are no published instrument procedures at FD08.

Some nearby airports with instrument procedures:

KBCT - Boca Raton Airport (6 nm SE)
KLNA - Palm Beach County Park Airport (8 nm NE)
KPMP - Pompano Beach Airpark (13 nm S)
KPBI - Palm Beach International Airport (13 nm N)
KFXE - Fort Lauderdale Executive Airport (16 nm S)
 
Loc | Ops | Rwys | IFR | FBO | Links
Com | Nav | Svcs | Stats | Notes

Reliance Aviation
AirBoss

 
Area around FD08 (Antiquers Aerodrome)
 
Road maps at: MapQuest Bing Google
 
Aerial photo
WARNING: Photo may not be current or correct
Aerial photo of FD08 (Antiquers Aerodrome)
Photo by Adam Aftab

Do you have a better or more recent aerial photo of Antiquers Aerodrome that you would like to share? If so, please send us your photo.

 
Sectional chart

 
Airport distance calculator
Flying to Antiquers Aerodrome? Find the distance to fly.

From to FD08

Sunrise and sunset
Times for 07-Dec-2021
 Local
(UTC-5)
 Zulu
(UTC)
Morning civil twilight06:3211:32
Sunrise06:5711:57
Sunset17:2722:27
Evening civil twilight17:5322:53

Current date and time
Zulu (UTC)  07-Dec-2021 10:32:22
Local (UTC-5)  07-Dec-2021 05:32:22
 
METAR
KBCT 
6nm SE 
070153Z 00000KT 7SM BKN050 22/22 A3009
KLNA 
8nm NE 
071015Z AUTO 33003KT 10SM CLR 20/19 A3007 RMK AO2 T01950186 PNO
KPMP 
13nm S 
070953Z AUTO 33004KT 10SM CLR 19/18 A3005 RMK AO2 SLP177 T01890178
KPBI 
13nm N 
070953Z 32004KT 10SM CLR 17/17 A3006 RMK AO2 SLP179 T01720172 $
KFXE 
16nm S 
070953Z AUTO 00000KT 10SM CLR 18/18 A3005 RMK AO2 SLP178 T01830183 TSNO $
TAF
KPBI 
13nm N 
070520Z 0706/0806 VRB03KT P6SM FEW020 SCT030 BKN050 FM071600 04007KT P6SM SCT040 SCT250
KFXE 
16nm S 
070915Z 0709/0806 VRB03KT P6SM FEW020 SCT030 BKN050 TEMPO 0709/0710 5SM BR SCT005 FM071600 08007KT P6SM SCT040 SCT250
NOTAMs
Click for the latest NOTAMs
NOTAMs are issued by the DoD/FAA and will open in a separate window not controlled by AirNav.

 

 
 

Would you like to see your business listed on this page?

 If your business provides an interesting product or service to pilots, flight crews, aircraft, or users of the Antiquers Aerodrome, you should consider listing it here.  To start the listing process, click on the button below
 
Add a business
 

Other Pages about Antiquers Aerodrome

Update a link
 
Copyright © AirNav, LLC. All rights reserved. Privacy Policy  Contact